Location: Cleveland Heights
(41.5201°N, 81.5562°W)
Time: 20:51:32
(UTC+00:00)

Daily predictions for brighter satellites

Satellite Brightness Start Highest point End
(mag) Time Altitude Azimuth Time Altitude Azimuth Time Altitude Azimuth
STARLINK 1030 3.2 12:00:17 10° WSW 12:03:54 69° NW 12:07:33 10° NE
Cosmos 2058 Rocket 3.8 12:02:15 10° SW 12:06:10 31° WNW 12:10:06 10° NNW
Cosmos 1437 3.5 12:03:28 10° N 12:06:27 51° ENE 12:09:24 10° SSE
STARLINK 1020 3.3 12:03:15 10° WSW 12:06:52 65° NW 12:10:30 10° NE
STARLINK-60 4.0 12:04:52 10° NW 12:08:05 41° NNE 12:11:17 10° ESE
STARLINK 1034 3.3 12:06:13 10° WSW 12:09:49 62° NW 12:13:27 10° NE
Cosmos 2263 Rocket 2.7 12:05:04 10° NW 12:10:16 39° WSW 12:15:29 10° S
Cosmos 1726 3.9 12:08:55 10° W 12:10:27 12° WNW 12:11:58 10° NW
Cosmos 1624 Rocket 4.0 12:05:32 10° NNW 12:10:42 64° WSW 12:15:49 10° S
CZ-2C R/B 4.0 12:06:35 10° SSE 12:11:10 72° ENE 12:15:41 10° N
STARLINK 1029 3.1 12:08:43 10° WSW 12:11:45 48° NW 12:14:49 10° NE
STARLINK 1028 3.3 12:12:19 10° WSW 12:15:04 38° NNW 12:17:50 10° NE
STARLINK 1021 3.3 12:12:34 10° WSW 12:15:18 38° NNW 12:18:04 10° NE
STARLINK 1019 3.3 12:12:49 10° WSW 12:15:33 37° NNW 12:18:16 10° NE
STARLINK 1012 3.3 12:13:01 10° WSW 12:15:46 37° NNW 12:18:31 10° NE
STARLINK 1033 3.4 12:12:12 10° WSW 12:15:47 55° NNW 12:19:23 10° NE
STARLINK 1010 3.3 12:13:13 10° WSW 12:15:58 37° NNW 12:18:43 10° NE
STARLINK 1026 3.3 12:13:26 10° WSW 12:16:11 37° NNW 12:18:56 10° NE
STARLINK 1013 3.3 12:13:41 10° WSW 12:16:26 37° NNW 12:19:11 10° NE
Alouette 2 Rocket 3.5 12:11:33 10° SSW 12:16:36 80° W 12:20:23 10° N
STARLINK 1009 3.3 12:13:55 10° WSW 12:16:40 37° NNW 12:19:25 10° NE
STARLINK 1015 3.3 12:14:09 10° WSW 12:16:53 36° NNW 12:19:37 10° NE
STARLINK 1016 3.3 12:14:22 10° WSW 12:17:06 36° NNW 12:19:51 10° NE
STARLINK 1008 3.4 12:14:37 10° WSW 12:17:20 36° NNW 12:20:05 10° NE
STARLINK 1025 3.4 12:15:03 10° W 12:17:46 36° NNW 12:20:31 10° NE
STARLINK 1017 3.4 12:15:17 10° W 12:18:00 36° NNW 12:20:45 10° NE
STARLINK 1023 3.4 12:15:29 10° W 12:18:13 35° NNW 12:20:58 10° NE
STARLINK 1007 3.4 12:15:45 10° W 12:18:28 35° NNW 12:21:13 10° NE
Nadezhda 3 Rocket 4.0 12:12:21 10° S 12:18:30 80° W 12:24:43 10° N
STARLINK 1048 3.4 12:15:58 10° W 12:18:42 35° NNW 12:21:25 10° NE
ATLAS 2AS CENTAUR R/B 3.6 12:11:26 10° WSW 12:18:46 38° NW 12:26:07 10° NNE
STARLINK 1049 3.4 12:16:10 10° W 12:18:54 35° NNW 12:21:38 10° NE
STARLINK 1051 3.4 12:16:25 10° W 12:19:08 35° NNW 12:21:52 10° NE
H-2A R/B 3.4 12:15:57 10° N 12:19:31 34° WNW 12:23:02 10° SW
Cosmos 1821 Rocket 4.0 12:15:04 10° N 12:21:16 86° W 12:27:22 10° S
ATLAS CENTAUR R/B 4.1 22:44:31 10° W 22:49:17 46° NNW 23:01:38 10° NE
SJ 16-02 4.2 22:54:37 10° WNW 22:55:44 11° NW 22:56:52 10° NW
Cosmos 1048 Rocket 4.0 22:52:11 10° NNW 22:57:19 88° WSW 23:02:26 10° SSE
Meteor 1-24 Rocket 4.1 22:54:13 10° SSW 22:59:28 65° W 23:04:52 10° N
NOSS 0 Rocket 4.0 22:53:22 10° NNW 22:59:34 65° ENE 23:05:41 10° SE
H-2A R/B 3.0 22:56:22 10° S 23:00:11 76° WSW 23:04:04 10° NNW
Cosmos 1269 Rocket 4.3 22:55:42 10° N 23:00:45 44° ENE 23:05:45 10° SE
SL-16 R/B 3.5 22:58:40 10° N 23:02:42 19° NE 23:06:42 10° E
CORIOLIS 4.2 22:59:27 10° SSE 23:04:50 87° ENE 23:10:14 10° NNW
Cosmos 2219 3.2 23:01:29 10° S 23:07:01 66° ESE 23:12:37 10° NNE
Cosmos 724 4.4 23:01:56 10° SSW 23:07:53 71° ESE 23:13:46 10° NE
Nadezhda 3 Rocket 4.1 23:08:22 10° N 23:14:42 86° E 23:21:03 10° S
CZ-4C R/B 3.1 23:08:21 10° NW 23:15:46 88° WSW 23:24:08 10° SSE
DELTA 2 R/B(2) 4.0 23:15:21 10° WSW 23:17:49 50° S 23:19:21 13° ESE
Cosmos 2297 Rocket 2.3 23:13:15 10° S 23:18:45 57° ESE 23:24:18 10° NNE
SKYMED 2 3.7 23:15:45 10° NNE 23:20:01 53° E 23:24:15 10° S
Cosmos 1939 Rocket 4.0 23:18:11 10° ESE 23:21:10 21° ENE 23:24:12 10° NNE
FengYun 1-2 T 4.3 23:16:20 10° SSE 23:21:52 63° ENE 23:27:28 10° N
Cosmos 1980 3.7 23:17:42 10° NNW 23:23:24 71° ENE 23:29:03 10° SSE
Cosmos 494 Rocket 4.0 23:20:40 10° NNW 23:25:48 87° WSW 23:30:55 10° SSE
Cosmos 1703 4.2 23:25:18 10° SSE 23:28:38 26° E 23:31:58 10° NNE
SL-8 R/B 3.8 23:23:58 10° SW 23:28:44 67° SSE 23:32:26 17° ENE
Cosmos 1812 Rocket 4.0 23:25:25 10° NNW 23:29:52 68° W 23:34:18 10° S
Ariane Rocket 4.3 23:26:38 10° ESE 23:30:03 19° ENE 23:33:29 10° NNE
Meteor 2-17 Rocket 4.5 23:24:05 10° S 23:30:14 90° W 23:36:25 10° N
Cosmos 2219 Rocket 3.7 23:25:19 10° NW 23:30:35 40° WSW 23:35:49 10° S
Cosmos 2227 Rocket 2.2 23:25:41 10° S 23:31:16 66° ESE 23:36:53 10° NNE
SL-8 Rocket 4.1 23:26:32 10° SSE 23:32:39 55° E 23:38:45 10° NNE
YAOGAN 1 2.8 23:31:59 10° SE 23:36:05 45° ENE 23:40:13 10° N
Cosmos-2242 3.1 23:31:53 10° N 23:36:07 51° E 23:40:16 10° SSE
ISS -3.8 23:34:48 10° SW 23:38:10 81° SE 23:40:06 24° ENE
Cosmos 2341 Rocket 4.0 23:32:12 10° S 23:38:36 85° E 23:44:59 10° N
USA 267 4.4 23:34:33 10° NE 23:40:14 33° NNW 23:45:55 10° W
H-2A ROCKET BODY 3.9 23:31:57 10° WSW 23:41:06 24° SSW 23:44:37 10° SSE
Cosmos 44 3.2 23:40:01 10° SSW 23:44:33 58° ESE 23:47:34 19° NE
Meteor 2-10 Rocket 3.5 23:42:37 10° N 23:47:50 56° ENE 23:52:51 10° SSE
ATLAS CENTAUR R/B 3.1 23:48:14 10° N 23:49:59 15° NNE 23:49:59 15° NNE
H-2A R/B 4.0 23:54:32 11° NNE 23:54:32 11° NNE 23:54:54 10° NNE
YAOGAN 6 3.7 23:48:55 10° S 23:52:30 48° W 23:56:04 10° NNW
CZ-4 R/B 1.3 23:48:55 10° SSE 23:52:56 90° W 23:57:05 10° NNW
